GW4332 Weather Reports


time (UTC)temp
C
wind
direction
speed
KPH
gust
KPH
rain 1hr
cm
rain 24hr
cm
rain mn
cm
humidity
%
barometer
mb
20260905005030 17 244 32.2 43.5 0.00 0.00 0.00 77 1014.5
20260905004030 17 256 35.4 45.1 0.00 0.00 0.00 77 1014.4
20260905003030 17 242 37.0 49.9 0.00 0.00 0.00 76 1014.4
20260905002030 17 257 40.2 46.7 0.00 0.00 0.00 76 1014.5
20260905001030 17 255 38.6 53.1 0.00 0.00 0.00 75 1014.5
20260905000030 18 250 41.8 51.5 0.00 0.00 0.00 75 1014.4
20260904235030 18 253 43.5 53.1 0.00 0.00 0.00 75 1014.3
20260904234030 18 263 41.8 51.5 0.00 0.00 0.00 76 1014.2
20260904233030 18 267 41.8 53.1 0.00 0.00 0.00 75 1014.4
20260904232029 18 265 41.8 51.5 0.00 0.00 0.00 76 1014.3
20260904231030 18 267 40.2 46.7 0.00 0.00 0.00 77 1014.2
20260904230030 18 268 41.8 49.9 0.00 0.00 0.00 75 1014.1
20260904225030 18 275 41.8 53.1 0.00 0.00 0.00 75 1014.1
20260904224030 18 263 41.8 49.9 0.00 0.00 0.00 76 1014.2
20260904223030 18 252 43.5 53.1 0.00 0.00 0.00 75 1014.0
20260904222030 18 256 41.8 53.1 0.00 0.00 0.00 76 1013.9
20260904221030 18 259 46.7 56.3 0.00 0.00 0.00 75 1013.8
20260904220030 18 254 45.1 59.5 0.00 0.00 0.05 75 1013.8
20260904215030 18 257 45.1 56.3 0.00 0.00 0.05 76 1013.6
20260904214030 18 253 45.1 59.5 0.00 0.00 0.05 74 1013.5
20260904213030 18 253 46.7 57.9 0.00 0.00 0.05 75 1013.5
20260904212029 18 263 46.7 59.5 0.00 0.00 0.05 76 1013.3
20260904211030 18 258 43.5 57.9 0.00 0.00 0.05 74 1013.3
20260904210030 18 254 45.1 57.9 0.00 0.00 0.05 75 1013.3
20260904205030 18 259 43.5 56.3 0.00 0.00 0.05 74 1013.2
20260904204030 18 239 35.4 48.3 0.00 0.00 0.05 77 1013.4
20260904203030 18 254 38.6 54.7 0.00 0.00 0.05 75 1013.3
20260904202029 18 253 38.6 51.5 0.00 0.00 0.05 77 1013.3
20260904201029 18 241 38.6 48.3 0.00 0.00 0.05 76 1013.3
20260904200030 18 255 41.8 53.1 0.00 0.00 0.05 75 1013.2
20260904195030 18 249 40.2 53.1 0.00 0.00 0.05 76 1013.2
20260904194030 18 253 41.8 53.1 0.00 0.00 0.05 75 1013.0
20260904193030 18 237 41.8 56.3 0.00 0.00 0.05 77 1012.9
20260904192030 18 244 41.8 54.7 0.00 0.00 0.05 76 1012.9
20260904191030 18 241 38.6 54.7 0.00 0.00 0.05 76 1012.8
20260904190030 18 247 38.6 49.9 0.00 0.00 0.05 75 1012.7
20260904185030 18 265 37.0 54.7 0.00 0.00 0.05 74 1012.6
20260904184030 18 259 46.7 59.5 0.00 0.00 0.05 72 1012.4
20260904183030 18 262 45.1 59.5 0.00 0.00 0.05 75 1012.3
20260904182030 18 256 45.1 59.5 0.00 0.00 0.05 76 1012.2
20260904181030 18 262 46.7 57.9 0.00 0.00 0.05 77 1012.1
20260904180030 18 263 48.3 57.9 0.00 0.00 0.05 77 1011.9
20260904175030 18 270 46.7 57.9 0.00 0.00 0.05 77 1011.7
20260904174030 18 285 46.7 56.3 0.00 0.00 0.05 76 1011.5
20260904173030 18 284 49.9 61.2 0.00 0.00 0.05 74 1011.5
20260904172030 18 272 48.3 57.9 0.00 0.00 0.05 74 1011.3
20260904171030 18 274 53.1 66.0 0.00 0.00 0.05 78 1011.1
20260904170030 18 267 53.1 62.8 0.00 0.00 0.05 78 1011.1
20260904165030 18 268 48.3 66.0 0.00 0.00 0.05 79 1011.1
20260904164030 18 268 51.5 61.2 0.00 0.00 0.05 79 1011.0
20260904163029 17 282 49.9 64.4 0.00 0.00 0.05 83 1010.9
20260904162030 18 255 43.5 57.9 0.00 0.00 0.05 82 1010.9
20260904161030 18 251 41.8 53.1 0.00 0.00 0.05 82 1010.8
20260904160029 18 249 45.1 57.9 0.00 0.00 0.05 82 1010.6
20260904155030 18 256 45.1 57.9 0.00 0.00 0.05 82 1010.7
20260904154029 18 255 51.5 66.0 0.00 0.00 0.05 82 1010.3
20260904153029 18 253 54.7 67.6 0.00 0.00 0.05 81 1010.2
20260904152030 18 255 51.5 69.2 0.00 0.00 0.05 82 1010.3
20260904151030 18 263 48.3 64.4 0.00 0.00 0.05 83 1010.3
20260904150030 18 258 45.1 62.8 0.00 0.00 0.05 84 1010.2
20260904145030 18 251 53.1 69.2 0.00 0.00 0.05 84 1010.0
20260904144029 18 257 48.3 62.8 0.00 0.00 0.05 85 1009.9
20260904143029 18 264 49.9 62.8 0.00 0.00 0.05 85 1009.7
20260904142030 18 242 43.5 59.5 0.00 0.00 0.05 88 1009.8
20260904141030 18 241 35.4 48.3 0.00 0.00 0.05 91 1009.7
20260904140030 18 236 33.8 54.7 0.00 0.00 0.05 91 1009.5
20260904135030 18 236 41.8 51.5 0.00 0.00 0.05 92 1009.5
20260904134030 17 231 37.0 53.1 0.00 0.00 0.05 92 1009.2
20260904133030 17 237 41.8 53.1 0.00 0.00 0.05 92 1009.2
20260904132030 17 224 38.6 53.1 0.00 0.00 0.05 93 1009.2
20260904131030 17 234 38.6 51.5 0.00 0.00 0.05 92 1009.4
20260904130030 17 245 37.0 51.5 0.00 0.00 0.05 92 1009.1
20260904125030 17 237 41.8 54.7 0.00 0.00 0.05 93 1009.0
20260904124030 17 249 41.8 59.5 0.00 0.00 0.05 93 1008.8
20260904123030 17 243 38.6 57.9 0.00 0.00 0.05 93 1008.8
20260904122030 17 246 38.6 48.3 0.00 0.00 0.05 94 1008.9
20260904121030 17 251 45.1 61.2 0.00 0.00 0.05 93 1008.6
20260904120029 17 241 32.2 46.7 0.00 0.00 0.05 94 1008.8
20260904115030 17 251 33.8 51.5 0.00 0.00 0.03 94 1008.9
20260904114030 17 250 37.0 49.9 0.00 0.00 0.03 93 1008.5
20260904113030 17 233 33.8 46.7 0.00 0.00 0.00 93 1008.6
20260904112030 17 229 22.5 37.0 0.00 0.00 0.00 92 1008.6
20260904111030 17 219 20.9 30.6 0.00 0.00 0.00 92 1008.5
20260904110030 17 221 24.1 32.2 0.00 0.00 0.00 91 1008.6
20260904105030 17 230 27.4 38.6 0.00 0.00 0.00 90 1008.7
20260904104030 17 249 38.6 48.3 0.00 0.00 0.00 89 1008.8
20260904103029 18 260 49.9 61.2 0.00 0.00 0.00 86 1008.8
20260904102030 18 246 40.2 61.2 0.00 0.00 0.00 83 1008.6
20260904101030 19 239 35.4 48.3 0.00 0.00 0.00 84 1008.5
20260904100030 19 230 35.4 46.7 0.00 0.00 0.00 84 1008.4
20260904095030 19 247 37.0 51.5 0.00 0.00 0.00 84 1008.3
20260904094030 20 260 54.7 67.6 0.00 0.00 0.00 83 1007.8
20260904093031 20 251 51.5 67.6 0.00 0.00 0.00 85 1007.3
20260904092029 21 224 40.2 67.6 0.00 0.00 0.00 83 1007.5
20260904091030 21 229 40.2 62.8 0.00 0.00 0.00 82 1007.5
20260904090030 21 231 41.8 69.2 0.00 0.00 0.00 82 1007.5
20260904085030 21 216 38.6 59.5 0.00 0.00 0.00 82 1007.5
20260904084030 21 216 33.8 61.2 0.00 0.00 0.00 82 1007.6
20260904083030 21 224 35.4 56.3 0.00 0.00 0.00 83 1007.4
20260904082030 21 228 37.0 62.8 0.00 0.00 0.00 84 1007.6
20260904081030 21 219 35.4 61.2 0.00 0.00 0.00 84 1007.5
20260904080030 21 214 33.8 54.7 0.00 0.00 0.00 84 1007.6
20260904075029 21 211 35.4 61.2 0.00 0.00 0.00 84 1007.7
20260904074030 21 217 29.0 46.7 0.00 0.00 0.00 85 1007.9
20260904073030 20 225 35.4 57.9 0.00 0.00 0.00 85 1008.0
20260904072030 20 215 32.2 56.3 0.00 0.00 0.00 85 1008.1
20260904071030 20 209 27.4 49.9 0.00 0.00 0.00 85 1008.2
20260904070030 20 216 29.0 49.9 0.00 0.00 0.00 85 1008.4
20260904065030 20 212 27.4 45.1 0.00 0.00 0.00 86 1008.5
20260904064030 20 202 24.1 40.2 0.00 0.00 0.00 86 1008.5
20260904063030 20 223 25.7 51.5 0.00 0.00 0.00 86 1008.6
20260904062030 20 218 27.4 53.1 0.00 0.00 0.00 86 1008.7
20260904061030 20 210 27.4 48.3 0.00 0.00 0.00 87 1008.7
20260904060030 20 208 24.1 45.1 0.00 0.00 0.00 87 1009.0
20260904055030 20 217 24.1 43.5 0.00 0.00 0.00 87 1008.9
20260904054029 20 207 24.1 48.3 0.00 0.00 0.00 87 1009.0
20260904053033 20 212 27.4 48.3 0.00 0.00 0.00 87 1009.1
20260904052030 20 206 22.5 38.6 0.00 0.00 0.00 88 1009.4
20260904051030 20 200 19.3 33.8 0.00 0.00 0.00 88 1009.4
20260904050030 20 209 22.5 40.2 0.00 0.00 0.00 88 1009.5
20260904045030 20 208 20.9 38.6 0.00 0.00 0.00 89 1009.8
20260904044030 20 205 20.9 38.6 0.00 0.00 0.00 89 1009.9
20260904043030 20 206 16.1 33.8 0.00 0.00 0.00 89 1010.1
20260904042030 20 209 16.1 30.6 0.00 0.00 0.00 89 1010.1
20260904041029 20 209 17.7 30.6 0.00 0.00 0.00 89 1010.3
20260904040030 20 211 17.7 38.6 0.00 0.00 0.00 90 1010.5
20260904035030 20 210 20.9 37.0 0.00 0.00 0.00 90 1010.5
20260904034030 19 213 19.3 30.6 0.00 0.00 0.00 90 1010.7
20260904033030 19 210 17.7 30.6 0.00 0.00 0.00 91 1010.7
20260904032030 19 199 14.5 29.0 0.00 0.00 0.00 91 1010.7
20260904031029 19 213 14.5 27.4 0.00 0.00 0.00 91 1010.9
20260904030030 19 196 14.5 25.7 0.00 0.00 0.00 91 1011.1
20260904025030 19 195 12.9 27.4 0.00 0.00 0.00 91 1011.1
20260904024030 19 190 12.9 22.5 0.00 0.00 0.00 91 1011.2
20260904023030 20 205 12.9 24.1 0.00 0.00 0.00 91 1011.3
20260904022030 20 197 11.3 24.1 0.00 0.00 0.00 90 1011.4
20260904021030 20 202 14.5 24.1 0.00 0.00 0.00 90 1011.6
20260904020030 20 177 11.3 24.1 0.00 0.00 0.00 90 1011.8
20260904015030 20 204 16.1 27.4 0.00 0.00 0.00 90 1011.9
20260904014030 20 202 17.7 32.2 0.00 0.00 0.00 90 1011.9
20260904013030 20 211 17.7 29.0 0.00 0.00 0.00 90 1012.1
20260904012030 20 200 17.7 32.2 0.00 0.00 0.00 90 1012.2
20260904011030 20 210 20.9 35.4 0.00 0.00 0.00 90 1012.4
20260904010031 20 205 17.7 33.8 0.00 0.00 0.00 90 1012.5